This demonstration page uses our WeatherBlox Daily Observations layout. Learn more.

Left ArrowRight Arrow

39.01783, -85.05884

Hourly Observations for March 19, 2022

Temp ( °F °C ) Dew Point ( °F °C ) Humidity (%) Winds ( mph kmh ) Pressure ( in mb ) Visibility ( mi km ) Precip ( " mm )
12:52 am 00:52 Cloudy with Light Rain 58 14.4 56 13.3 93 93 S 10 17 29.62 1003 9 14 0.03 0.76
1:11 am 01:11 Cloudy with Heavy Rain 57 13.9 55 12.8 93 93 SW 12 19 29.66 1004 2 3 0.05 1.27
1:29 am 01:29 Cloudy with Light Rain 56 13.3 54 12.2 93 93 S 10 17 29.64 1004 4 6 0.15 3.81
1:52 am 01:52 Cloudy with Light Rain 56 13.3 54 12.2 93 93 SSW 6 9 29.63 1003 5 8 0.16 4.06
2:52 am 02:52 Mostly Cloudy 56 13.3 54 12.2 93 93 SSW 12 19 29.64 1004 10 16 0.01 0.25
3:30 am 03:30 Cloudy 56 13.3 55 12.8 97 97 SSW 9 15 29.66 1004 10 16 0.00 0.00
3:52 am 03:52 Cloudy 55 12.8 54 12.2 96 96 SSW 8 13 29.64 1004 9 14 0.00 0.00
4:52 am 04:52 Mostly Cloudy 55 12.8 52 11.1 90 90 SW 12 19 29.63 1003 9 14 0.00 0.00
5:52 am 05:52 Cloudy 54 12.2 50 10 87 87 SSW 10 17 29.65 1004 10 16 0.00 0.00
6:52 am 06:52 Cloudy 52 11.1 49 9.4 89 89 SW 17 28 29.67 1005 7 11 0.00 0.00
7:21 am 07:21 Cloudy with Light Rain 50 10 49 9.4 96 96 SW 13 20 29.70 1006 3 4 0.00 0.00
7:33 am 07:33 Cloudy with Light Rain 50 10 49 9.4 96 96 SW 12 19 29.71 1006 3 5 0.01 0.25
7:52 am 07:52 Cloudy with Light Rain 50 10 48 8.9 93 93 SW 12 19 29.70 1006 7 11 0.01 0.25
8:52 am 08:52 Cloudy with Light Rain 49 9.4 48 8.9 97 97 SW 12 19 29.71 1006 3 5 0.01 0.25
9:52 am 09:52 Cloudy with Light Rain 48 8.9 46 7.8 93 93 SW 17 28 29.75 1007 8 13 0.00 0.00
10:52 am 10:52 Cloudy with Light Rain 47 8.3 45 7.2 93 93 WSW 13 20 29.78 1008 7 11 0.01 0.25
11:52 am 11:52 Cloudy 48 8.9 45 7.2 89 89 WSW 13 20 29.80 1009 10 16 0.00 0.00
12:52 pm 12:52 Cloudy 48 8.9 43 6.1 83 83 WSW 16 26 29.81 1010 10 16 0.00 0.00
1:52 pm 13:52 Cloudy 48 8.9 42 5.6 80 80 WSW 18 30 29.83 1010 10 16 0.00 0.00
2:52 pm 14:52 Cloudy 48 8.9 42 5.6 80 80 WSW 14 22 29.85 1011 10 16 0.00 0.00
3:52 pm 15:52 Cloudy 46 7.8 41 5 83 83 SW 15 24 29.86 1011 10 16 0.00 0.00
4:52 pm 16:52 Cloudy with Light Rain 45 7.2 40 4.4 83 83 WSW 16 26 29.89 1012 10 16 0.00 0.00
5:52 pm 17:52 Cloudy 43 6.1 39 3.9 86 86 WSW 16 26 29.91 1013 10 16 0.00 0.00
6:52 pm 18:52 Cloudy with Light Rain 43 6.1 38 3.3 82 82 WSW 17 28 29.95 1014 10 16 0.00 0.00
7:52 pm 19:52 Cloudy with Light Rain 42 5.6 39 3.9 89 89 WSW 13 20 29.98 1015 7 11 0.00 0.00
8:52 pm 20:52 Cloudy 41 5 40 4.4 96 96 WSW 14 22 30.00 1016 7 11 0.01 0.25
9:12 pm 21:12 Cloudy with Light Rain 41 5 40 4.4 96 96 WSW 10 17 30.03 1017 5 8 0.00 0.00
9:52 pm 21:52 Cloudy with Mist and Fog 41 5 40 4.4 96 96 WSW 10 17 30.01 1016 6 10 0.00 0.00
10:52 pm 22:52 Cloudy 41 5 40 4.4 96 96 WSW 7 11 30.02 1017 10 16 0.00 0.00
11:09 pm 23:09 Cloudy 41 5 41 5 100 100 WSW 10 17 30.05 1018 7 11 0.00 0.00
11:43 pm 23:43 Cloudy with Light Rain 41 5 41 5 100 100 WSW 9 15 30.06 1018 10 16 0.00 0.00
11:52 pm 23:52 Cloudy 41 5 41 5 100 100 WSW 10 17 30.03 1017 8 13 0.00 0.00

Powered by AerisWeather